Starlink 30129

operational
NORAD ID: 56689 Int'l Des: 2023-067 Owner: SPXS Country: US Constellation: starlink
LEOCIRCULAR

About Starlink 30129

Description loading...

Live Position

Loading 3D Globe...

Upcoming Passes

Altitude History

Altitude vs Time

uPlot chart will show altitude changes over time

Two-Line Element Set

1 56689U 23067B 25258.37783464 .00001221 00000-0 10539-3 0 9993
2 56689 43.0041 147.4563 0001403 264.8568 95.2114 15.02550152129285
Epoch: Sep 15, 2025 • Age: 22 hours

Current Status

Altitude 563.4 km
Velocity 7.58 km/s
Sub-Earth Point -21.41°S, 13.3°E
Launch Date May 19, 2023
Age 2.3 years
Type internet

Technical Details

Classification Payload
Mass 730.00 kg
Dry Mass 700.00 kg
Total Mass 730.00 kg
Length 0.30 m
Diameter 4.10 m
Span 29.00 m
Shape Box + pan
Manufacturer SPXS
Bus Type Starlink V2M
Phase Status In Orbit
Owner/State SPXS/US

Large Constellations

Loading constellations...